Flag for Germany Weather past 2 weeks in Troisdorf, North Rhine-Westphalia, Germany

Now
43 °F

Passing clouds.


Feels Like: 41 °F
Forecast: 30 / 56 °F
Wind: 3 mph from North

Location: Koeln / Bonn

Current Time: Mar 27, 2015 at 10:42:39 PM

Latest Report: Mar 27, 2015 at 9:50 PM


Visibility: N/A

Pressure: 30.21 "Hg

Humidity: 71%

Dew point: 34 °F

Location of TroisdorfLocation

Historic Weather in Troisdorf — Graph

°F

Troisdorf temperature yesterday

Maximum temperature yesterday: 50 °F (at 1:20 PM)
Minimum temperature yesterday: 39 °F (at 6:50 PM)
Average temperature yesterday: 43 °F

Past Weeks' High & Low Weather Summary

 TemperatureHumidityPressure
High66 °F (Mar 17, 3:50 PM)100% (Mar 16, 4:50 AM)30.36 "Hg (Mar 16, 4:50 AM)
Low28 °F (Mar 16, 7:20 AM)28% (Mar 17, 3:50 PM)29.65 "Hg (Mar 25, 12:50 AM)
Average43 °F75%30.11 "Hg
* Reported Mar 12 9:20 PM — Mar 27 9:20 PM, Troisdorf, Weather by CustomWeather, © 2015

Note: Actual official high and low records may vary slightly from our data, if they occured in-between our weather recording intervals... More about our weather records

Advertising

Troisdorf weather history for previous 24 hours

 ConditionsComfort  
Time TempWeatherWind HumidityBarometerVisibility
9:20 PM
Fri, Mar 27
45 °FPassing clouds.5 mph61%30.18 "HgN/A
8:50 PM45 °FPassing clouds.7 mph66%30.18 "HgN/A
8:20 PM45 °FClear.8 mph61%30.18 "Hg10 mi
7:50 PM46 °FPassing clouds.8 mph57%30.18 "HgN/A
7:20 PM46 °FPassing clouds.7 mph57%30.15 "HgN/A
6:50 PM46 °FPartly sunny.12 mph57%30.15 "HgN/A
6:20 PM48 °FPartly sunny.15 mph50%30.15 "HgN/A
5:50 PM48 °FPartly sunny.15 mph50%30.12 "HgN/A
5:20 PM48 °FBroken clouds.15 mph54%30.12 "HgN/A
4:50 PM48 °FSprinkles. Partly sunny.17 mph58%30.12 "HgN/A
4:20 PM50 °FBroken clouds.17 mph54%30.09 "HgN/A
3:50 PM50 °FBroken clouds.18 mph54%30.09 "HgN/A
3:20 PM50 °FBroken clouds.18 mph54%30.09 "HgN/A
2:50 PM48 °FBroken clouds.17 mph54%30.09 "HgN/A
2:20 PM48 °FScattered clouds.18 mph58%30.07 "HgN/A
1:50 PM48 °FSprinkles. Broken clouds.16 mph58%30.07 "HgN/A
1:20 PM46 °FSprinkles. Broken clouds.14 mph66%30.07 "HgN/A
12:50 PM46 °FSprinkles. Broken clouds.16 mph66%30.07 "HgN/A
12:20 PM46 °FBroken clouds.18 mph66%30.07 "HgN/A
11:50 AM45 °FRain showers. Broken clouds.17 mph71%30.07 "HgN/A
11:20 AM46 °FScattered clouds.13 mph66%30.04 "HgN/A
10:50 AM46 °FScattered clouds.16 mph66%30.04 "HgN/A
10:20 AM45 °FBroken clouds.17 mph71%30.04 "HgN/A
9:50 AM45 °FBroken clouds.13 mph76%30.01 "HgN/A
9:20 AM43 °FBroken clouds.15 mph81%30.01 "HgN/A
8:50 AM43 °FBroken clouds.17 mph81%29.98 "HgN/A
8:20 AM43 °FBroken clouds.13 mph76%29.98 "HgN/A
7:50 AM41 °FLight rain. Broken clouds.13 mph81%29.98 "HgN/A
7:20 AM41 °FLight rain. Broken clouds.13 mph81%29.95 "HgN/A
6:50 AM41 °FLight rain. Partly sunny.12 mph81%29.95 "HgN/A
6:20 AM41 °FPartly sunny.13 mph81%29.92 "HgN/A
5:50 AM41 °FPartly cloudy.15 mph81%29.92 "HgN/A
5:20 AM41 °FPartly cloudy.10 mph81%29.92 "HgN/A
3:50 AM43 °FPartly cloudy.12 mph81%29.86 "HgN/A
3:20 AM43 °FPassing clouds.13 mph81%29.86 "HgN/A
2:50 AM43 °FPassing clouds.14 mph81%29.86 "HgN/A
2:20 AM45 °FClear.14 mph81%29.83 "Hg10 mi
1:50 AM45 °FClear.12 mph81%29.83 "Hg10 mi
1:20 AM45 °FPassing clouds.12 mph87%29.83 "HgN/A
12:50 AM43 °FPassing clouds.7 mph93%29.80 "HgN/A
12:20 AM43 °FPartly cloudy.8 mph93%29.80 "HgN/A
11:50 PM
Thu, Mar 26
43 °FPassing clouds.8 mph93%29.80 "HgN/A
11:20 PM43 °FPartly cloudy.7 mph87%29.80 "HgN/A
10:50 PM41 °FScattered showers. Passing clouds.6 mph93%29.77 "HgN/A
10:20 PM41 °FLight rain. Overcast.8 mph93%29.77 "HgN/A
Weather by CustomWeather, © 2015

See weather overviewHow to use our weather pages